カタログに戻る

STARLINK-31485

運用中通信VLEO
NORAD 59308·PAYLOAD·🇺🇸 United States

打ち上げ Mar 24, 2024 から Cape Canaveral Space Force Station

Loading…

次のパス (今後24時間)

TLE

最新Source: CelesTrak SupGP

元期: Sep 14, 2026, 21:15 UTC

1 59308C 24056N   26257.88590278  .00034270  00000+0  12422-2 0  2576
2 59308  43.0009 242.4870 0001431 263.4879 194.0302 15.27537147    10

AllMySatでSTARLINK-31485をリアルタイム追跡

Download on the App Store